Weather History for Tacoma, WA

Change the Weather History Date:

Tuesday, February 21, 2012

  Actual Average Record
Temperature  
Mean Temperature 47 °F -  
Max Temperature 50 °F 48 °F 64 °F (1966)
Min Temperature 44 °F 30 °F 15 °F (1957)
Degree Days  
Heating Degree Days 18    
Moisture  
Dew Point 48 °F    
Average Humidity 98    
Maximum Humidity 100    
Minimum Humidity 93    
Precipitation  
Precipitation 0.26 in - - ()
Sea Level Pressure  
Sea Level Pressure 30.10 in    
Wind  
Wind Speed 15 mph (SSW)    
Max Wind Speed 23 mph    
Max Gust Speed 32 mph    
Visibility 8 miles    
Events Rain    
Averages and records for this station are not official NWS values.
T = Trace of Precipitation, MM = Missing Value Source: NWS Daily Summary

Daily Weather History Graph

Daily Weather History Graph

Search for Another Location

Airport:

Trip Planner

Search our weather history database for the weather conditions in past years. The results will help you decide how hot, cold, wet, or windy it might be!

Date:

Astronomy

Feb. 21, 2012 Rise Set
Actual Time 7:05 AM PST 5:42 PM PST
Civil Twilight 6:34 AM PST 6:13 PM PST
Nautical Twilight 5:58 AM PST 6:49 PM PST
Astronomical Twilight 5:23 AM PST 7:24 PM PST
Moon 6:34 AM PST 5:59 PM PST
Length of Visible Light 11h 39m
Length of Day
10h 37m
Waning Crescent, 0% of the Moon is Illuminated
Feb 21
Waning Crescent
Feb 21
New
Feb 29
First Quarter
Mar 8
Full
Mar 14
Last Quarter

Hourly Weather History & Observations

Time (PST) Temp. Windchill Dew Point Humidity Pressure Visibility Wind Dir Wind Speed Gust Speed Precip Events Conditions
12:33 AM 44.6 °F 40.7 °F 44.6 °F 100% 30.05 in 10.0 mi South 6.9 mph - N/A   Overcast
12:55 AM 46.0 °F 40.6 °F 45.9 °F 99% 30.04 in 10.0 mi SSW 11.5 mph - N/A   Overcast
1:34 AM 48.2 °F - 46.4 °F 93% 30.05 in 10.0 mi SSW 12.7 mph - N/A   Overcast
1:55 AM 47.3 °F - 47.1 °F 99% 30.04 in 10.0 mi South 13.8 mph - N/A   Overcast
2:12 AM 48.2 °F - 46.4 °F 93% 30.04 in 10.0 mi SSW 15.0 mph - N/A   Overcast
2:26 AM 48.2 °F - 46.4 °F 93% 30.04 in 10.0 mi South 15.0 mph - N/A   Overcast
2:55 AM 47.3 °F - 47.1 °F 99% 30.04 in 10.0 mi South 12.7 mph - N/A   Overcast
3:26 AM 48.2 °F - 46.4 °F 93% 30.05 in 8.0 mi SSW 13.8 mph - N/A   Overcast
3:39 AM 48.2 °F - 46.4 °F 93% 30.05 in 10.0 mi SSW 12.7 mph - N/A   Overcast
3:55 AM 47.3 °F - 47.1 °F 99% 30.05 in 10.0 mi SSW 12.7 mph - N/A   Overcast
4:29 AM 48.2 °F - 46.4 °F 93% 30.06 in 10.0 mi SSW 13.8 mph 21.9 mph N/A Rain Light Rain
4:39 AM 48.2 °F - 46.4 °F 93% 30.07 in 10.0 mi SSW 15.0 mph - N/A   Overcast
4:55 AM 47.5 °F - 47.3 °F 99% 30.07 in 10.0 mi SSW 13.8 mph - 0.00 in   Overcast
5:04 AM 48.2 °F - 46.4 °F 93% 30.06 in 10.0 mi SSW 12.7 mph - N/A Rain Light Rain
5:15 AM 48.2 °F - 46.4 °F 93% 30.06 in 10.0 mi SSW 15.0 mph 21.9 mph N/A Rain Light Rain
5:16 AM 48.2 °F - 46.4 °F 93% 30.06 in 10.0 mi SSW 15.0 mph 21.9 mph N/A   Overcast
5:55 AM 47.7 °F - 47.3 °F 99% 30.07 in 10.0 mi SSW 19.6 mph 24.2 mph 0.00 in   Overcast
6:10 AM 48.2 °F - 46.4 °F 93% 30.06 in 10.0 mi SSW 17.3 mph 26.5 mph N/A   Overcast
6:28 AM 48.2 °F - 46.4 °F 93% 30.06 in 10.0 mi SSW 15.0 mph 23.0 mph N/A   Overcast
6:36 AM 48.2 °F - 46.4 °F 93% 30.07 in 10.0 mi SSW 12.7 mph - N/A   Overcast
6:40 AM 48.2 °F - 46.4 °F 93% 30.07 in 10.0 mi SSW 16.1 mph - N/A   Overcast
6:55 AM 47.8 °F - 47.1 °F 97% 30.08 in 10.0 mi SSW 13.8 mph - N/A   Overcast
7:02 AM 48.2 °F - 46.4 °F 93% 30.08 in 10.0 mi SSW 18.4 mph - N/A   Overcast
7:08 AM 48.2 °F - 46.4 °F 93% 30.08 in 10.0 mi SW 13.8 mph - N/A   Overcast
7:13 AM 48.2 °F - 46.4 °F 93% 30.09 in 7.0 mi SSW 15.0 mph - N/A   Light Drizzle
7:16 AM 48.2 °F - 46.4 °F 93% 30.09 in 6.0 mi SSW 13.8 mph - N/A   Light Drizzle
7:24 AM 48.2 °F - 48.2 °F 100% 30.09 in 5.0 mi SSW 13.8 mph 21.9 mph N/A   Overcast
7:26 AM 48.2 °F - 48.2 °F 100% 30.09 in 4.0 mi SSW 17.3 mph 24.2 mph N/A   Overcast
7:29 AM 48.2 °F - 48.2 °F 100% 30.09 in 4.0 mi SSW 13.8 mph 24.2 mph N/A   Light Drizzle
7:55 AM 47.7 °F - 47.5 °F 99% 30.09 in 6.0 mi SSW 17.3 mph 24.2 mph 0.01 in Rain Light Rain
7:57 AM 48.2 °F - 48.2 °F 100% 30.09 in 6.0 mi SSW 16.1 mph 24.2 mph N/A Rain Light Rain
8:06 AM 48.2 °F - 48.2 °F 100% 30.10 in 10.0 mi SSW 15.0 mph - N/A   Overcast
8:16 AM 48.2 °F - 48.2 °F 100% 30.09 in 10.0 mi SSW 15.0 mph 21.9 mph N/A   Overcast
8:50 AM 48.2 °F - 48.2 °F 100% 30.11 in 10.0 mi SSW 15.0 mph - N/A   Overcast
8:52 AM 48.2 °F - 48.2 °F 100% 30.11 in 10.0 mi SSW 17.3 mph - N/A   Overcast
8:55 AM 48.2 °F - 47.7 °F 98% 30.11 in 10.0 mi SSW 15.0 mph - 0.00 in   Overcast
8:59 AM 48.2 °F - 48.2 °F 100% 30.11 in 9.0 mi SSW 13.8 mph - N/A Rain Light Rain
9:17 AM 48.2 °F - 48.2 °F 100% 30.11 in 10.0 mi SSW 15.0 mph - N/A   Overcast
9:27 AM 48.2 °F - 48.2 °F 100% 30.12 in 10.0 mi SSW 13.8 mph - N/A   Overcast
9:33 AM 48.2 °F - 48.2 °F 100% 30.12 in 10.0 mi SW 13.8 mph - N/A   Overcast
9:41 AM 48.2 °F - 48.2 °F 100% 30.12 in 10.0 mi SSW 15.0 mph 19.6 mph N/A Rain Light Rain
9:55 AM 48.4 °F - 47.7 °F 97% 30.12 in 10.0 mi SSW 18.4 mph 21.9 mph 0.00 in Rain Light Rain
9:59 AM 48.2 °F - 48.2 °F 100% 30.12 in 10.0 mi SSW 17.3 mph 23.0 mph N/A Rain Light Rain
10:01 AM 48.2 °F - 48.2 °F 100% 30.12 in 10.0 mi SSW 18.4 mph 23.0 mph N/A   Overcast
10:55 AM 49.1 °F - 47.7 °F 95% 30.10 in 10.0 mi SSW 17.3 mph - 0.00 in   Overcast
11:48 AM 50.0 °F - 48.2 °F 94% 30.12 in 10.0 mi SSW 17.3 mph 24.2 mph N/A   Overcast
11:51 AM 50.0 °F - 48.2 °F 94% 30.12 in 8.0 mi SSW 16.1 mph 24.2 mph N/A Rain Light Rain
11:55 AM 49.3 °F - 48.4 °F 97% 30.12 in 6.0 mi SSW 15.0 mph 24.2 mph 0.00 in Rain Light Rain
11:57 AM 50.0 °F - 48.2 °F 94% 30.12 in 5.0 mi SSW 15.0 mph 21.9 mph N/A Rain Light Rain
12:00 PM 50.0 °F - 48.2 °F 94% 30.11 in 4.0 mi SSW 18.4 mph - N/A Rain Light Rain
12:02 PM 50.0 °F - 48.2 °F 94% 30.11 in 4.0 mi SSW 19.6 mph - N/A Rain Light Rain
12:13 PM 50.0 °F - 50.0 °F 100% 30.11 in 4.0 mi SSW 16.1 mph - N/A Rain Light Rain
12:14 PM 50.0 °F - 50.0 °F 100% 30.11 in 4.0 mi SSW 16.1 mph - N/A Rain Light Rain
12:21 PM 50.0 °F - 50.0 °F 100% 30.11 in 3.0 mi SSW 15.0 mph - N/A Rain Light Rain
12:25 PM 50.0 °F - 50.0 °F 100% 30.10 in 3.0 mi SSW 13.8 mph - N/A   Overcast
12:26 PM 50.0 °F - 50.0 °F 100% 30.09 in 2.5 mi SSW 13.8 mph - N/A   Overcast
12:28 PM 50.0 °F - 50.0 °F 100% 30.09 in 3.0 mi SSW 13.8 mph - N/A   Overcast
12:30 PM 50.0 °F - 50.0 °F 100% 30.09 in 3.0 mi SSW 15.0 mph - N/A Rain Light Rain
12:36 PM 50.0 °F - 50.0 °F 100% 30.09 in 4.0 mi SSW 18.4 mph 23.0 mph N/A Rain Light Rain
12:40 PM 50.0 °F - 50.0 °F 100% 30.09 in 5.0 mi SSW 19.6 mph - N/A Rain Light Rain
12:43 PM 50.0 °F - 50.0 °F 100% 30.09 in 6.0 mi SSW 15.0 mph 23.0 mph N/A   Overcast
12:46 PM 50.0 °F - 50.0 °F 100% 30.09 in 8.0 mi SSW 18.4 mph - N/A   Overcast
12:47 PM 50.0 °F - 50.0 °F 100% 30.09 in 9.0 mi SSW 17.3 mph - N/A   Overcast
12:53 PM 50.0 °F - 50.0 °F 100% 30.08 in 10.0 mi South 16.1 mph 25.3 mph N/A   Overcast
12:55 PM 49.6 °F - 49.1 °F 98% 30.08 in 10.0 mi SSW 19.6 mph 25.3 mph 0.02 in   Overcast
1:05 PM 50.0 °F - 50.0 °F 100% 30.10 in 8.0 mi SSW 17.3 mph 23.0 mph N/A Rain Light Rain
1:29 PM 50.0 °F - 50.0 °F 100% 30.09 in 5.0 mi SSW 16.1 mph 21.9 mph N/A Rain Light Rain
1:32 PM 50.0 °F - 50.0 °F 100% 30.10 in 6.0 mi SSW 13.8 mph - N/A Rain Light Rain
1:33 PM 50.0 °F - 50.0 °F 100% 30.10 in 6.0 mi SSW 13.8 mph 21.9 mph N/A Rain Light Rain
1:35 PM 50.0 °F - 50.0 °F 100% 30.10 in 5.0 mi SSW 15.0 mph 21.9 mph N/A Rain Light Rain
1:36 PM 50.0 °F - 50.0 °F 100% 30.10 in 5.0 mi SSW 12.7 mph 21.9 mph N/A Rain Light Rain
1:42 PM 50.0 °F - 50.0 °F 100% 30.07 in 3.0 mi SSW 15.0 mph 21.9 mph N/A Rain Rain
1:53 PM 50.0 °F - 50.0 °F 100% 30.08 in 5.0 mi SSW 17.3 mph 25.3 mph N/A Rain Light Rain
1:55 PM 49.6 °F - 49.5 °F 99% 30.09 in 6.0 mi SSW 15.0 mph 25.3 mph 0.13 in Rain Light Rain
1:56 PM 50.0 °F - 50.0 °F 100% 30.09 in 7.0 mi SSW 15.0 mph 25.3 mph N/A Rain Light Rain
1:57 PM 50.0 °F - 50.0 °F 100% 30.09 in 8.0 mi SSW 15.0 mph 25.3 mph N/A Rain Light Rain
1:59 PM 50.0 °F - 50.0 °F 100% 30.09 in 9.0 mi SSW 18.4 mph - N/A Rain Light Rain
2:03 PM 50.0 °F - 50.0 °F 100% 30.09 in 10.0 mi SSW 16.1 mph - N/A Rain Light Rain
2:18 PM 50.0 °F - 50.0 °F 100% 30.10 in 8.0 mi SSW 20.7 mph 26.5 mph N/A Rain Light Rain
2:23 PM 50.0 °F - 50.0 °F 100% 30.09 in 7.0 mi SSW 19.6 mph 26.5 mph N/A Rain Light Rain
2:31 PM 50.0 °F - 50.0 °F 100% 30.08 in 8.0 mi SSW 23.0 mph - N/A Rain Light Rain
2:39 PM 50.0 °F - 50.0 °F 100% 30.10 in 10.0 mi SSW 18.4 mph 27.6 mph N/A   Overcast
2:43 PM 50.0 °F - 50.0 °F 100% 30.10 in 10.0 mi SSW 19.6 mph 27.6 mph N/A   Overcast
2:55 PM 50.4 °F - 49.5 °F 97% 30.08 in 10.0 mi SSW 18.4 mph 32.2 mph 0.01 in Rain Light Rain
3:08 PM 50.0 °F - 50.0 °F 100% 30.09 in 8.0 mi SSW 20.7 mph 31.1 mph N/A Rain Light Rain
3:09 PM 50.0 °F - 50.0 °F 100% 30.09 in 8.0 mi SSW 20.7 mph 29.9 mph N/A Rain Light Rain
3:12 PM 50.0 °F - 50.0 °F 100% 30.09 in 9.0 mi SSW 19.6 mph 27.6 mph N/A Rain Light Rain
3:13 PM 50.0 °F - 50.0 °F 100% 30.09 in 10.0 mi SSW 18.4 mph 27.6 mph N/A Rain Light Rain
3:14 PM 50.0 °F - 50.0 °F 100% 30.09 in 10.0 mi SSW 20.7 mph 27.6 mph N/A Rain Light Rain
3:15 PM 50.0 °F - 50.0 °F 100% 30.09 in 10.0 mi SSW 19.6 mph 27.6 mph N/A   Overcast
3:16 PM 50.0 °F - 50.0 °F 100% 30.09 in 10.0 mi SSW 19.6 mph 27.6 mph N/A   Overcast
3:38 PM 50.0 °F - 50.0 °F 100% 30.09 in 10.0 mi SSW 20.7 mph 29.9 mph N/A   Overcast
3:40 PM 50.0 °F - 50.0 °F 100% 30.09 in 10.0 mi SSW 19.6 mph 29.9 mph N/A   Overcast
3:49 PM 50.0 °F - 50.0 °F 100% 30.10 in 10.0 mi SSW 16.1 mph 27.6 mph N/A   Overcast
3:55 PM 50.2 °F - 49.1 °F 96% 30.09 in 10.0 mi SSW 18.4 mph 29.9 mph 0.00 in   Overcast
3:56 PM 50.0 °F - 48.2 °F 94% 30.09 in 10.0 mi SSW 20.7 mph 29.9 mph N/A   Overcast
4:00 PM 50.0 °F - 48.2 °F 94% 30.09 in 10.0 mi SSW 20.7 mph 29.9 mph N/A   Overcast
4:01 PM 50.0 °F - 48.2 °F 94% 30.09 in 10.0 mi SSW 19.6 mph 28.8 mph N/A   Overcast
4:05 PM 50.0 °F - 48.2 °F 94% 30.09 in 10.0 mi SSW 21.9 mph 28.8 mph N/A   Overcast
4:55 PM 49.6 °F - 48.6 °F 96% 30.09 in 10.0 mi SSW 17.3 mph 26.5 mph N/A   Overcast
5:10 PM 50.0 °F - 48.2 °F 94% 30.10 in 10.0 mi SSW 19.6 mph 27.6 mph N/A   Overcast
5:12 PM 50.0 °F - 48.2 °F 94% 30.10 in 10.0 mi SSW 17.3 mph 25.3 mph N/A   Overcast
5:13 PM 50.0 °F - 48.2 °F 94% 30.10 in 10.0 mi SSW 17.3 mph 25.3 mph N/A   Overcast
5:30 PM 50.0 °F - 48.2 °F 94% 30.11 in 10.0 mi SSW 17.3 mph 23.0 mph N/A   Overcast
5:54 PM 50.0 °F - 48.2 °F 94% 30.12 in 10.0 mi SSW 17.3 mph - N/A Rain Light Rain
5:55 PM 49.1 °F - 48.4 °F 97% 30.12 in 10.0 mi SW 17.3 mph - 0.00 in Rain Light Rain
6:04 PM 48.2 °F - 48.2 °F 100% 30.11 in 10.0 mi SSW 17.3 mph - N/A   Overcast
6:11 PM 48.2 °F - 48.2 °F 100% 30.12 in 10.0 mi SSW 17.3 mph - N/A   Overcast
6:17 PM 48.2 °F - 48.2 °F 100% 30.12 in 10.0 mi SSW 16.1 mph - N/A   Overcast
6:55 PM 48.9 °F - 48.4 °F 98% 30.13 in 10.0 mi SSW 16.1 mph - 0.00 in   Overcast
7:06 PM 48.2 °F - 48.2 °F 100% 30.13 in 9.0 mi SSW 15.0 mph - N/A   Overcast
7:08 PM 48.2 °F - 48.2 °F 100% 30.13 in 8.0 mi SSW 15.0 mph - N/A Rain Light Rain
7:33 PM 48.2 °F - 48.2 °F 100% 30.12 in 10.0 mi South 16.1 mph - N/A   Overcast
7:55 PM 48.6 °F - 48.4 °F 99% 30.12 in 10.0 mi South 15.0 mph - 0.00 in   Overcast
8:13 PM 48.2 °F - 48.2 °F 100% 30.12 in 10.0 mi SSW 13.8 mph 21.9 mph N/A   Overcast
8:37 PM 48.2 °F - 48.2 °F 100% 30.12 in 9.0 mi SSW 16.1 mph 23.0 mph N/A   Overcast
8:51 PM 48.2 °F - 48.2 °F 100% 30.13 in 7.0 mi SSW 16.1 mph - N/A   Overcast
8:55 PM 48.6 °F - 48.4 °F 99% 30.13 in 7.0 mi SSW 15.0 mph - N/A   Overcast
9:13 PM 48.2 °F - 48.2 °F 100% 30.13 in 6.0 mi SSW 16.1 mph - N/A Rain Light Rain
9:27 PM 48.2 °F - 48.2 °F 100% 30.12 in 4.0 mi SSW 12.7 mph - N/A Rain Light Rain
9:36 PM 48.2 °F - 48.2 °F 100% 30.12 in 6.0 mi SSW 15.0 mph 21.9 mph N/A Rain Light Rain
9:47 PM 48.2 °F - 48.2 °F 100% 30.13 in 5.0 mi SSW 13.8 mph 21.9 mph N/A Rain Light Rain
9:50 PM 48.2 °F - 48.2 °F 100% 30.12 in 4.0 mi SSW 15.0 mph 21.9 mph N/A   Overcast
9:55 PM 48.4 °F - 48.2 °F 99% 30.11 in 4.0 mi SSW 15.0 mph - 0.02 in   Overcast
9:56 PM 48.2 °F - 48.2 °F 100% 30.12 in 5.0 mi SSW 15.0 mph - N/A Rain Light Rain
10:03 PM 48.2 °F - 48.2 °F 100% 30.13 in 5.0 mi SW 12.7 mph - N/A Rain Light Rain
10:04 PM 48.2 °F - 48.2 °F 100% 30.13 in 5.0 mi SW 11.5 mph - N/A Rain Light Rain
10:14 PM 48.2 °F - 48.2 °F 100% 30.12 in 3.0 mi SSW 16.1 mph - N/A   Overcast
10:26 PM 48.2 °F - 48.2 °F 100% 30.10 in 4.0 mi SSW 16.1 mph - N/A Rain Light Rain
10:55 PM 48.4 °F - 48.2 °F 99% 30.11 in 4.0 mi SW 13.8 mph - 0.03 in Rain Light Rain
11:12 PM 48.2 °F - 48.2 °F 100% 30.10 in 2.5 mi SSW 13.8 mph 25.3 mph N/A Rain Light Rain
11:15 PM 48.2 °F - 48.2 °F 100% 30.11 in 3.0 mi SSW 13.8 mph 25.3 mph N/A Rain Light Rain
11:16 PM 48.2 °F - 48.2 °F 100% 30.11 in 3.0 mi SSW 12.7 mph - N/A   Overcast
11:52 PM 48.2 °F - 48.2 °F 100% 30.09 in 5.0 mi SSW 13.8 mph - N/A Rain Light Rain
11:53 PM 48.2 °F - 48.2 °F 100% 30.09 in 6.0 mi SSW 13.8 mph - N/A Rain Light Rain
11:55 PM 48.4 °F - 48.2 °F 99% 30.09 in 6.0 mi SSW 17.3 mph - 0.04 in Rain Light Rain